Погода в Ханевале

Пакистан     30°18′15″N   71°55′42″E
темп.,
°C
ветер,
м/с
пор.,
м/с
влажн.,
%
обл.,
%
осадки,
мм/ч
давл.,
гПа
погр.,
м
12 апреля, пн
пн1223:00+28св3313100 0.0 101039
02:00+26вюв471867 0.0 100998
05:00+23ссз22242 0.0 101013
08:00+29ссв231997 0.0 1012289
11:00+36вюв221087 0.0 10121473
14:00+39з35712 0.0 10082682
17:00+39зсз768100 0.0 10072869
20:00+30ссв22141 0.0 100812
13 апреля, вт
вт1323:00+28ссз331879 0.0 100936
02:00+26св2322100 0.0 100916
05:00+26св222327 0.0 100913
08:00+30юв221966 0.0 1011293
11:00+38ю331017 0.0 10101724
14:00+42зюз45679 0.0 10064727
17:00+40зсз456100 0.0 10044029
20:00+32сз0110100 0.0 100511
14 апреля, ср
ср1423:00+30св3313100 0.0 100726
02:00+28всв492024 0.0 1006147
05:00+24св343092 0.0 100753
08:00+29с552288 0.0 1010385
11:00+37всв321332 0.0 10091177
14:00+41юз2475 0.0 10055142
17:00+40юз44785 0.0 10035251
20:00+33юз511115 0.0 1005266
15 апреля, чт
чт1523:00+29зюз2314100 0.0 100757
02:00+26сз111575 0.0 100611
05:00+26ю2215100 0.0 100711
08:00+31ююз3314100 0.0 1008284
11:00+36ююз4416100 0.0 10081350
14:00+39ю661343 0.0 10053853
17:00+38ю76137 0.0 10022432
20:00+31зсз112270 0.3 100416
16 апреля, пт
пт1623:00+26сз3436100 0.4 100550
02:00+25сз3339100 0.0 100543
05:00+25с51042100 0.0 1005292
08:00+27ссз5940100 0.2 1007464
11:00+31ссв8927100 0.3 1006872
14:00+32ссз972497 0.0 10062185
17:00+28ссз673737 0.4 1006745
20:00+24ссз5104738 0.0 1007274